TimeCDT,TemperatureF,Dew PointF,Humidity,Sea Level PressureIn,VisibilityMPH,Wind Direction,Wind SpeedMPH,Gust SpeedMPH,PrecipitationIn,Events,Conditions,WindDirDegrees,DateUTC
12:56 AM,37.0,34.0,89,29.69,-9999.0,NNW,18.4,27.6,N/A,,Unknown,340,2013-03-10 06:56:00
1:56 AM,37.0,33.1,86,29.72,-9999.0,NNW,16.1,24.2,N/A,,Unknown,330,2013-03-10 07:56:00
3:56 AM,36.0,32.0,86,29.72,-9999.0,NNW,17.3,32.2,N/A,,Unknown,340,2013-03-10 08:56:00
4:56 AM,35.1,32.0,89,29.73,-9999.0,NNW,20.7,27.6,N/A,,Unknown,340,2013-03-10 09:56:00
5:56 AM,34.0,28.9,82,29.76,-9999.0,NNW,24.2,36.8,N/A,,Unknown,340,2013-03-10 10:56:00
6:56 AM,34.0,28.9,82,29.79,-9999.0,NNW,23.0,39.1,N/A,,Unknown,340,2013-03-10 11:56:00
7:56 AM,35.1,28.9,78,29.79,-9999.0,NNW,23.0,39.1,N/A,,Unknown,340,2013-03-10 12:56:00
8:56 AM,34.0,27.0,75,29.82,-9999.0,NNW,34.5,49.5,N/A,,Unknown,340,2013-03-10 13:56:00
9:56 AM,32.0,25.0,75,29.85,-9999.0,North,29.9,47.2,N/A,,Unknown,350,2013-03-10 14:56:00
10:56 AM,32.0,24.1,73,29.93,-9999.0,NNW,26.5,39.1,N/A,,Unknown,340,2013-03-10 15:56:00
11:56 AM,33.1,24.1,70,29.94,-9999.0,North,27.6,40.3,N/A,,Unknown,350,2013-03-10 16:56:00
12:56 PM,34.0,24.1,67,29.96,-9999.0,North,26.5,36.8,N/A,,Unknown,350,2013-03-10 17:56:00
1:56 PM,34.0,23.0,64,29.96,-9999.0,North,29.9,43.7,N/A,,Unknown,360,2013-03-10 18:56:00
2:56 PM,35.1,24.1,64,29.95,-9999.0,North,29.9,41.4,N/A,,Unknown,360,2013-03-10 19:56:00
3:56 PM,35.1,25.0,67,29.97,-9999.0,North,23.0,33.4,N/A,,Unknown,350,2013-03-10 20:56:00
4:56 PM,36.0,25.0,64,29.99,-9999.0,North,24.2,33.4,N/A,,Unknown,350,2013-03-10 21:56:00
5:56 PM,36.0,24.1,62,30.00,-9999.0,North,19.6,29.9,N/A,,Unknown,350,2013-03-10 22:56:00
6:56 PM,35.1,24.1,64,30.02,-9999.0,North,18.4,23.0,N/A,,Unknown,350,2013-03-10 23:56:00
7:56 PM,34.0,24.1,67,30.04,-9999.0,North,12.7,23.0,N/A,,Unknown,350,2013-03-11 00:56:00
8:56 PM,34.0,21.9,61,30.05,-9999.0,North,12.7,-,N/A,,Unknown,350,2013-03-11 01:56:00
9:56 PM,34.0,21.9,61,30.07,-9999.0,NNW,11.5,-,N/A,,Unknown,330,2013-03-11 02:56:00
10:56 PM,30.9,21.0,67,30.09,-9999.0,NNW,13.8,-,N/A,,Unknown,340,2013-03-11 03:56:00
11:56 PM,30.0,21.0,69,30.09,-9999.0,NNW,8.1,-,N/A,,Unknown,330,2013-03-11 04:56:00
12:56 AM,28.0,19.9,72,30.09,-9999.0,NNW,10.4,-,N/A,,Unknown,340,2013-03-11 05:56:00